STARLINK-1772

decayed
NORAD ID: 46678 Int'l Des: 2020-073 Owner: SPXS Country: US Constellation: starlink
LEOCIRCULAR
グループ

STARLINK-1772について

説明を読み込み中...

高度履歴

Altitude vs Time

uPlot chart will show altitude changes over time

軌道要素

1 46678U 20073J 20362.54227016 .41226016 12449-4 10634-2 0 9995
2 46678 53.0395 115.7885 0007438 121.1149 327.3160 16.45355000 11603
Epoch: Dec 27, 2020 • Age: 41205 hours

現在のステータス

Position data unavailable
打ち上げ日 Oct 18, 2020
運用期間 4.8 years
落下予定日 Dec 28, 2020
タイプ internet

技術仕様

分類 Payload
質量 260.00 kg
乾燥質量 248.00 kg
総質量 260.00 kg
長さ 0.20 m
直径 2.80 m
スパン 9.00 m
形状 Box + pan
製造者 SPXS
バスタイプ Starlink
フェーズステータス Reentered
所有者/国 SPXS/US

大規模コンステレーション

Loading constellations...